Location: Newark
(34.6283°N, 36.0776°E)
Time: 04:49:59
(UTC+00:00)

S-56A Canister/Altair - Pass Details

Date: 20 October 2019
Orbit: 634 x 2498 km, 38.9° (Epoch: 18 November)

Event Time Altitude Azimuth Distance (km) Brightness Sun altitude
Rises 08:24:11 0° 280° (W) 5,449 11.7 43.1°
Reaches altitude 10° 08:29:06 10° 264° (W) 4,723 11.6 43.5°
Maximum altitude 08:37:19 19° 226° (SW) 4,332 11.9 43.9°
Drops below altitude 10° 08:46:17 10° 189° (S) 5,152 12.7 44.4°
Sets 08:52:10 0° 173° (S) 6,109 12.9 44.6°
